Regional Weather Roundup
Issued by NWS Huntsville, AL

Home | Current Version | Previous Version | Text Only | Print | Product List | Glossary On
Versions: 1 2 3 4 5 6 7 8 9 10 11 12 13 14 15 16 17 18 19 20 21 22 23 24 25 26 27 28 29 30 31 32 33 34 35 36 37 38 39 40 41 42 43 44 45 46 47 48 49 50
000
ASUS44 KHUN 091110
RWRHUN

WEATHER ROUNDUP FOR THE TENNESSEE VALLEY
NATIONAL WEATHER SERVICE HUNTSVILLE AL
500 AM CST TUE FEB 09 2016

ALZ001>004-091200-
NORTHWEST ALABAMA

CITY           SKY/WX    TMP DP  RH WIND       PRES   REMARKS
RUSSELLVILLE     N/A     32 N/A N/A MISG        N/A
SHOALS AIRPORT CLOUDY    32  20  61 NW12      29.89S WCI  23
SHOALS TVA RES   N/A     32 N/A N/A MISG        N/A
$$

ALZ005>007-016-091200-
NORTH CENTRAL ALABAMA

CITY           SKY/WX    TMP DP  RH WIND       PRES   REMARKS
CULLMAN AG STN   N/A     32 N/A N/A W12         N/A  WCI  23
DECATUR AP     FLURRIES  31  22  69 NW8       29.88S WCI  23
HUNTSVILLE AP  FLURRIES  33  20  58 NW9       29.87R WCI  25
HUN NWS/UAH      N/A     31  21  67 NW7         N/A  WCI  24
MERIDIANVILLE  FLURRIES  30  21  69 NW6       29.86S WCI  24
REDSTONE ARSN  CLOUDY    32  21  65 NW9       29.86R WCI  24
VINEMONT AP    CLOUDY    31  17  54 W12G18    29.88R WCI  22
$$

ALZ008>010-091200-
NORTHEAST ALABAMA

CITY           SKY/WX    TMP DP  RH WIND       PRES   REMARKS
ALBERTVILLE    CLOUDY    32  27  80 W9        29.83S WCI  24
FORT PAYNE     CLOUDY    32  19  59 W7        29.83S WCI  26
SCOTTSBORO AP  LGT RAIN  32  21  64 NW5       29.86S WCI  27
SCOTTSBORO HCN   N/A     32 N/A N/A MISG        N/A
VALLEY HEAD      N/A     30 N/A N/A MISG        N/A
$$

TNZ076-096-097-091200-
SOUTHEASTERN MIDDLE TENNESSEE

CITY           SKY/WX    TMP DP  RH WIND       PRES   REMARKS
TULLAHOMA      CLOUDY    23  23 100 NW3       29.84R
WINCHESTER     CLOUDY    27  19  74 N6        29.84S WCI  20
$$

...SURROUNDING SITES...

CITY           SKY/WX    TMP DP  RH WIND       PRES   REMARKS
ATLANTA        CLOUDY    34  22  61 W14       29.81R WCI  25
ANNISTON       CLOUDY    35  18  49 W9        29.89R WCI  28
BIRMINGHAM     CLOUDY    34  19  54 W9        29.92R WCI  27
CHATTANOOGA    FLURRIES  31  19  61 NW7       29.85R WCI  24
DALTON         NOT AVBL
GADSDEN        NOT AVBL
GOLDEN TRNGL   MOCLDY    34  16  47 W9G18     29.95R WCI  26
HALEYVILLE     CLOUDY    31  19  61 NW6       29.90R WCI  25
JACKSON TN     FLURRIES  28  21  75 NW15      29.93R WCI  16
MEMPHIS        CLOUDY    33  19  56 NW8       29.95S WCI  26
NASHVILLE      FLURRIES  26  19  74 N8        29.87R WCI  18
OXFORD MS      CLOUDY    32  18  55 NW9       29.97S WCI  24
ROME           CLOUDY    34  20  56 W12       29.83S WCI  25
TUPELO         CLOUDY    35  17  47 NW10G17   29.94R WCI  27
TUSCALOOSA     CLOUDY    37  19  48 W9        29.96R WCI  30
$$

...GULF COAST WEATHER...

CITY           SKY/WX    TMP DP  RH WIND       PRES   REMARKS
GULFPORT       CLEAR     36  19  50 W6        30.09R WCI  31
PASCAGOULA     PTCLDY    34  23  64 W5        30.08R WCI  30
MOBILE         CLEAR     33  23  66 W5        30.06R WCI  29
GULF SHORES    SUNNY     31  28  89 CALM      30.06R
PENSACOLA      CLEAR     36  25  64 W3        30.05
DESTIN         CLEAR     45  21  38 VRB6      30.05R
PANAMA CITY    CLEAR     43  22  43 NW15      30.04
APPALACHICOLA  CLOUDY    44  24  45 N10       30.02S
$$




USA.gov is the U.S. government's official web portal to all federal, state and local government web resources and services.